Location: Unspecified
(49.2170°N, 0.0000°E)
Time: 14:17:03
(UTC+00:00)

Tiros 1 despin weight - Pass Details

Date: 30 January 2021
Orbit: 593 x 642 km, 48.2° (Epoch: 06 March)

Event Time Altitude Azimuth Distance (km) Brightness Sun altitude
Rises 16:50:26 0° 282° (WNW) 2,881 ? -0.4°
Reaches altitude 10° 16:52:51 10° 275° (W) 1,966 ? -0.7°
Maximum altitude 16:57:05 41° 205° (SSW) 875 ? -1.4°
Drops below altitude 10° 17:01:16 10° 135° (SE) 1,934 ? -2.0°
Sets 17:03:37 0° 129° (SE) 2,828 ? -2.3°
